Location: S�tio Afonso Gruber
(26.1760°S, 49.5250°W)
Time: 14:35:13
(UTC+00:00)

USA 229 DEB - Pass Details

Date: 07 June 2020
Orbit: 983 x 1229 km, 63.4° (Epoch: 24 June)

Event Time Altitude Azimuth Distance (km) Brightness Sun altitude
Rises 08:43:29 0° 311° (NW) 4,144 6.5 -17.0°
Reaches altitude 10° 08:46:31 10° 303° (WNW) 3,178 5.8 -16.3°
Maximum altitude 08:53:31 38° 237° (WSW) 1,773 4.4 -14.8°
Drops below altitude 10° 09:00:22 10° 171° (S) 3,099 6.0 -13.4°
Sets 09:03:19 0° 162° (SSE) 4,030 6.7 -12.7°
